TimeEST,TemperatureF,Dew PointF,Humidity,Sea Level PressureIn,VisibilityMPH,Wind Direction,Wind SpeedMPH,Gust SpeedMPH,PrecipitationIn,Events,Conditions,WindDirDegrees,DateUTC
12:54 AM,32.0,28.0,85,30.08,10.0,Calm,Calm,-,N/A,,Clear,0,2013-01-21 05:54:00
1:54 AM,30.0,27.0,88,30.09,10.0,Calm,Calm,-,N/A,,Clear,0,2013-01-21 06:54:00
2:54 AM,28.9,26.1,89,30.09,10.0,NNW,3.5,-,N/A,,Clear,340,2013-01-21 07:54:00
3:54 AM,28.0,25.0,88,30.08,10.0,Calm,Calm,-,N/A,,Clear,0,2013-01-21 08:54:00
4:54 AM,28.0,25.0,88,30.07,10.0,Calm,Calm,-,N/A,,Clear,0,2013-01-21 09:54:00
5:54 AM,27.0,24.1,89,30.07,10.0,Calm,Calm,-,N/A,,Clear,0,2013-01-21 10:54:00
6:54 AM,27.0,24.1,89,30.07,10.0,Calm,Calm,-,N/A,,Clear,0,2013-01-21 11:54:00
7:54 AM,24.1,21.9,91,30.09,10.0,North,3.5,-,N/A,,Clear,350,2013-01-21 12:54:00
8:54 AM,32.0,28.9,88,30.09,10.0,NNW,3.5,-,N/A,,Clear,330,2013-01-21 13:54:00
9:54 AM,37.0,30.0,76,30.10,10.0,NNW,6.9,-,N/A,,Clear,340,2013-01-21 14:54:00
10:54 AM,44.1,27.0,51,30.08,10.0,NNW,17.3,25.3,N/A,,Clear,340,2013-01-21 15:54:00
11:54 AM,48.0,25.0,41,30.05,10.0,NNW,13.8,-,N/A,,Clear,340,2013-01-21 16:54:00
12:54 PM,50.0,24.1,36,30.00,10.0,North,12.7,19.6,N/A,,Clear,350,2013-01-21 17:54:00
1:54 PM,51.1,26.1,38,29.97,10.0,North,11.5,-,N/A,,Clear,360,2013-01-21 18:54:00
2:54 PM,51.1,24.1,35,29.98,10.0,North,15.0,19.6,N/A,,Clear,360,2013-01-21 19:54:00
3:54 PM,50.0,21.9,33,29.97,10.0,North,8.1,18.4,N/A,,Clear,10,2013-01-21 20:54:00
4:54 PM,46.0,16.0,30,29.99,10.0,North,13.8,-,N/A,,Clear,350,2013-01-21 21:54:00
5:54 PM,41.0,10.9,29,30.04,10.0,North,12.7,21.9,N/A,,Clear,350,2013-01-21 22:54:00
6:54 PM,39.0,12.9,34,30.03,10.0,Variable,4.6,-,N/A,,Clear,0,2013-01-21 23:54:00
7:54 PM,37.9,12.9,36,30.04,10.0,North,6.9,-,N/A,,Clear,10,2013-01-22 00:54:00
8:54 PM,37.0,12.9,37,30.02,10.0,Variable,4.6,-,N/A,,Clear,0,2013-01-22 01:54:00
9:54 PM,35.1,12.9,40,30.03,10.0,NNE,4.6,-,N/A,,Clear,20,2013-01-22 02:54:00
10:54 PM,34.0,10.9,38,30.03,10.0,North,6.9,-,N/A,,Clear,10,2013-01-22 03:54:00
11:54 PM,30.9,10.9,43,30.03,10.0,North,9.2,-,N/A,,Clear,360,2013-01-22 04:54:00